This is the latest recevied weather packets stored in our database for station/object WA6TJQ. If no packets are shown the sender has not sent any weather packets the latest 10 day(s).
| Time | Temp. | Humidity | Pressure | Rain* | Wind** | Luminosity | Snow |
|---|---|---|---|---|---|---|---|
| 1788151259 | 63° F | 43% | 759.7 mmHg | 0 in | - | - | - |
| 1788150959 | 63° F | 44% | 759.6 mmHg | 0 in | - | - | - |
| 1788150659 | 63° F | 44% | 759.4 mmHg | 0 in | - | - | - |
| 1788150359 | 63° F | 42% | 759.5 mmHg | 0 in | - | - | - |
| 1788150059 | 63° F | 42% | 759.4 mmHg | 0 in | - | - | - |
| 1788149759 | 64° F | 42% | 759.4 mmHg | 0 in | - | - | - |
| 1788149459 | 64° F | 42% | 759.4 mmHg | 0 in | - | - | - |
| 1788149159 | 64° F | 44% | 759.4 mmHg | 0 in | - | - | - |
| 1788148859 | 64° F | 47% | 759.4 mmHg | 0 in | - | - | - |
| 1788148559 | 64° F | 47% | 759.4 mmHg | 0 in | - | - | - |
| 1788148259 | 64° F | 47% | 759.3 mmHg | 0 in | - | - | - |
| 1788147958 | 64° F | 49% | 759.4 mmHg | 0 in | - | - | - |
| 1788147658 | 64° F | 47% | 759.4 mmHg | 0 in | - | - | - |
| 1788147358 | 64° F | 48% | 759.2 mmHg | 0 in | - | - | - |
| 1788147058 | 64° F | 48% | 759.2 mmHg | 0 in | - | - | - |
| 1788146758 | 64° F | 47% | 759.1 mmHg | 0 in | - | - | - |
| 1788146458 | 64° F | 46% | 759.1 mmHg | 0 in | - | - | - |
| 1788146158 | 64° F | 46% | 759.1 mmHg | 0 in | - | - | - |
| 1788145858 | 64° F | 46% | 759.1 mmHg | 0 in | - | - | - |
| 1788145558 | 64° F | 49% | 759.1 mmHg | 0 in | - | - | - |
| 1788145258 | 65° F | 48% | 758.9 mmHg | 0 in | - | - | - |
| 1788144958 | 65° F | 49% | 759.1 mmHg | 0 in | - | - | - |
| 1788144658 | 65° F | 50% | 759.1 mmHg | 0 in | - | - | - |
| 1788144358 | 65° F | 48% | 759 mmHg | 0 in | - | - | - |
| 1788144058 | 66° F | 51% | 759.1 mmHg | 0 in | - | - | - |
* Rain latest hour (hover to see other rain measurements)
** Current wind speed in m/s (hover to see current wind gust speed)